Погода в Маунтин-Вью

США     37°23′09″N   122°05′02″W
темп.,
°C
ветер,
м/с
пор.,
м/с
влажн.,
%
обл.,
%
осадки,
мм/ч
давл.,
гПа
погр.,
м
7 августа, вс
вс723:00+18зсз22700 0.0 1016377
02:00+17зсз12740 0.0 1016226
05:00+16сз11780 0.0 1016152
08:00+17зсз12741 0.0 1017433
11:00+23сз33500 0.0 1017780
14:00+25сз54420 0.0 1016891
17:00+24сз55430 0.0 1015798
20:00+20сз45580 0.0 1016609
8 августа, пн
пн823:00+18зсз34650 0.0 1017411
02:00+17зсз24690 0.0 1016358
05:00+16зсз12730 0.0 1016195
08:00+18зсз13670 0.0 1016373
11:00+23сз34440 0.0 1016771
14:00+26сз55380 0.0 1015935
17:00+25сз56420 0.0 1014856
20:00+20сз45580 0.0 1015621
9 августа, вт
вт923:00+18зсз24680 0.0 1015386
02:00+17зсз13720 0.0 1015318
05:00+16зсз12770 0.0 1014183
08:00+17зсз12700 0.0 1015310
11:00+23сз33430 0.0 1015832
14:00+26сз44360 0.0 1014910
17:00+25сз55360 0.0 1013864
20:00+21сз45510 0.0 1014644
10 августа, ср
ср1023:00+18сз24650 0.0 1016397
02:00+17зсз13700 0.0 1015222
05:00+16сз02730 0.0 1015180
08:00+18зсз12650 0.0 1017288
11:00+24зсз33400 0.0 1017719
14:00+27сз44320 0.0 1016913
17:00+25сз56360 0.0 1016759
20:00+21сз35520 0.0 1016481
11 августа, чт
чт1123:00+19з12590 0.0 1016274
02:00+17зсз01660 0.0 1016103
05:00+16сз00700 0.0 101655
08:00+18з01620 0.0 1016222
11:00+25зсз22340 0.0 1016482
14:00+30сз44240 0.0 1015823
17:00+27сз55300 0.0 1014655
20:00+21сз34440 0.0 1015405